contact:dominique.lefevre@mio.osupytheas.fr, maurice.libes@osupytheas.fr, didier.mallarino@osupytheas.fr
Project:EMSO http://www.emso-fr.org/EMSO-France
Depth: 2436.0 m
Title:EMSO Ligure Ouest : Data MII capteur MICROCAT
DateTime_Computer,Latitude,Longitude,Temperature,Conductivity,Pressure,DateTime_Instrument
DateTime_Computer,Latitude,Longitude,degC,S m-1,dbar,DateTime_Instrument
2020-06-18T00:00:23Z,42.805,6.029,13.2971,4.59974,2470.063,2020-6-18T02:01:08Z
2020-06-18T00:03:27Z,42.805,6.029,13.2968,4.59974,2470.063,2020-6-18T02:04:11Z
2020-06-18T00:06:30Z,42.805,6.029,13.2967,4.59976,2470.124,2020-6-18T02:07:14Z
2020-06-18T00:09:33Z,42.805,6.029,13.2962,4.59973,2470.11,2020-6-18T02:10:18Z
2020-06-18T00:12:36Z,42.805,6.029,13.2963,4.59973,2470.087,2020-6-18T02:13:21Z
2020-06-18T00:15:40Z,42.805,6.029,13.2968,4.59976,2470.087,2020-6-18T02:16:24Z
2020-06-18T00:18:43Z,42.805,6.029,13.2965,4.59973,2470.133,2020-6-18T02:19:27Z
2020-06-18T00:21:46Z,42.805,6.029,13.2967,4.59973,2470.1,2020-6-18T02:22:31Z
2020-06-18T00:24:49Z,42.805,6.029,13.2969,4.59974,2470.087,2020-6-18T02:25:34Z
2020-06-18T00:27:52Z,42.805,6.029,13.2967,4.59973,2470.087,2020-6-18T02:28:37Z
2020-06-18T00:30:56Z,42.805,6.029,13.2967,4.59972,2470.087,2020-6-18T02:31:40Z
2020-06-18T00:33:59Z,42.805,6.029,13.2968,4.59972,2470.087,2020-6-18T02:34:43Z
2020-06-18T00:37:02Z,42.805,6.029,13.2970,4.59973,2470.1,2020-6-18T02:37:47Z
2020-06-18T00:40:05Z,42.805,6.029,13.2967,4.59973,2470.124,2020-6-18T02:40:50Z
2020-06-18T00:48:05Z,42.805,6.029,13.2967,4.59972,2470.087,2020-6-18T02:48:50Z
2020-06-18T00:51:08Z,42.805,6.029,13.2965,4.59973,2470.1,2020-6-18T02:51:52Z
2020-06-18T02:25:44Z,42.805,6.029,13.2970,4.59973,2470.156,2020-6-18T04:26:28Z
2020-06-18T02:28:47Z,42.805,6.029,13.2969,4.59973,2470.11,2020-6-18T04:29:32Z
2020-06-18T02:31:50Z,42.805,6.029,13.2966,4.59973,2470.156,2020-6-18T04:32:35Z
2020-06-18T02:34:53Z,42.805,6.029,13.2971,4.59973,2470.147,2020-6-18T04:35:38Z
2020-06-18T02:37:57Z,42.805,6.029,13.2971,4.59974,2470.11,2020-6-18T04:38:41Z
2020-06-18T02:41:00Z,42.805,6.029,13.2971,4.59976,2470.147,2020-6-18T04:41:45Z
2020-06-18T02:44:03Z,42.805,6.029,13.2966,4.59973,2470.11,2020-6-18T04:44:48Z
2020-06-18T02:47:06Z,42.805,6.029,13.2974,4.59975,2470.133,2020-6-18T04:47:51Z
2020-06-18T02:50:10Z,42.805,6.029,13.2964,4.59974,2470.18,2020-6-18T04:50:54Z
2020-06-18T02:53:13Z,42.805,6.029,13.2969,4.59974,2470.147,2020-6-18T04:53:57Z
2020-06-18T02:56:16Z,42.805,6.029,13.2969,4.59973,2470.171,2020-6-18T04:57:01Z
2020-06-18T02:59:19Z,42.805,6.029,13.2968,4.59974,2470.147,2020-6-18T05:00:04Z
2020-06-18T03:02:23Z,42.805,6.029,13.2970,4.59972,2470.156,2020-6-18T05:03:07Z
2020-06-18T03:05:26Z,42.805,6.029,13.2964,4.59973,2470.156,2020-6-18T05:06:10Z
2020-06-18T03:08:29Z,42.805,6.029,13.2972,4.59974,2470.18,2020-6-18T05:09:14Z
2020-06-18T03:11:32Z,42.805,6.029,13.2969,4.59973,2470.156,2020-6-18T05:12:17Z
2020-06-18T03:14:35Z,42.805,6.029,13.2967,4.59972,2470.156,2020-6-18T05:15:20Z
2020-06-18T03:17:39Z,42.805,6.029,13.2968,4.59973,2470.156,2020-6-18T05:18:23Z
2020-06-18T03:20:42Z,42.805,6.029,13.2967,4.59973,2470.156,2020-6-18T05:21:27Z
2020-06-18T03:23:45Z,42.805,6.029,13.2968,4.59973,2470.194,2020-6-18T05:24:30Z
2020-06-18T03:26:49Z,42.805,6.029,13.2969,4.59976,2470.156,2020-6-18T05:27:33Z
2020-06-18T03:29:52Z,42.805,6.029,13.2968,4.59974,2470.156,2020-6-18T05:30:36Z
2020-06-18T03:32:55Z,42.805,6.029,13.2971,4.59973,2470.194,2020-6-18T05:33:40Z
2020-06-18T03:35:58Z,42.805,6.029,13.2971,4.59975,2470.194,2020-6-18T05:36:43Z
2020-06-18T03:39:01Z,42.805,6.029,13.2971,4.59974,2470.18,2020-6-18T05:39:46Z
2020-06-18T03:42:05Z,42.805,6.029,13.2968,4.59973,2470.171,2020-6-18T05:42:49Z
2020-06-18T03:45:08Z,42.805,6.029,13.2966,4.59976,2470.156,2020-6-18T05:45:52Z
2020-06-18T03:48:11Z,42.805,6.029,13.2962,4.59975,2470.156,2020-6-18T05:48:56Z
2020-06-18T03:51:14Z,42.805,6.029,13.2964,4.59972,2470.203,2020-6-18T05:51:59Z
2020-06-18T03:54:18Z,42.805,6.029,13.2968,4.59973,2470.18,2020-6-18T05:55:02Z
2020-06-18T03:57:21Z,42.805,6.029,13.2969,4.59973,2470.194,2020-6-18T05:58:05Z
2020-06-18T04:00:24Z,42.805,6.029,13.2967,4.59975,2470.171,2020-6-18T06:01:09Z
2020-06-18T04:03:27Z,42.805,6.029,13.2971,4.59973,2470.194,2020-6-18T06:04:12Z
2020-06-18T04:06:30Z,42.805,6.029,13.2968,4.59973,2470.194,2020-6-18T06:07:15Z
2020-06-18T04:09:34Z,42.805,6.029,13.2967,4.59973,2470.194,2020-6-18T06:10:18Z
2020-06-18T04:12:37Z,42.805,6.029,13.2968,4.59973,2470.194,2020-6-18T06:13:22Z
2020-06-18T04:15:40Z,42.805,6.029,13.2968,4.59977,2470.203,2020-6-18T06:16:25Z
2020-06-18T04:18:43Z,42.805,6.029,13.2969,4.59973,2470.166,2020-6-18T06:19:28Z
2020-06-18T04:21:47Z,42.805,6.029,13.2969,4.59971,2470.194,2020-6-18T06:22:31Z
2020-06-18T04:24:50Z,42.805,6.029,13.2971,4.59976,2470.24,2020-6-18T06:25:35Z
2020-06-18T04:27:53Z,42.805,6.029,13.2966,4.59972,2470.203,2020-6-18T06:28:38Z
2020-06-18T04:30:56Z,42.805,6.029,13.2968,4.59972,2470.18,2020-6-18T06:31:41Z
2020-06-18T04:34:00Z,42.805,6.029,13.2972,4.59974,2470.156,2020-6-18T06:34:44Z
2020-06-18T04:37:03Z,42.805,6.029,13.2970,4.59973,2470.18,2020-6-18T06:37:47Z
2020-06-18T04:40:06Z,42.805,6.029,13.2968,4.59973,2470.18,2020-6-18T06:40:51Z
2020-06-18T04:43:09Z,42.805,6.029,13.2969,4.59973,2470.194,2020-6-18T06:43:54Z
2020-06-18T04:46:12Z,42.805,6.029,13.2969,4.59975,2470.203,2020-6-18T06:46:57Z
2020-06-18T04:49:16Z,42.805,6.029,13.2968,4.59975,2470.18,2020-6-18T06:50:00Z
2020-06-18T04:52:19Z,42.805,6.029,13.2968,4.59973,2470.203,2020-6-18T06:53:03Z
2020-06-18T04:55:22Z,42.805,6.029,13.2969,4.59974,2470.18,2020-6-18T06:56:07Z
2020-06-18T04:58:25Z,42.805,6.029,13.2969,4.59971,2470.194,2020-6-18T06:59:10Z
2020-06-18T05:01:28Z,42.805,6.029,13.2968,4.59975,2470.227,2020-6-18T07:02:13Z
2020-06-18T05:04:32Z,42.805,6.029,13.2965,4.59974,2470.203,2020-6-18T07:05:16Z
2020-06-18T05:07:35Z,42.805,6.029,13.2968,4.59973,2470.227,2020-6-18T07:08:20Z
2020-06-18T05:10:38Z,42.805,6.029,13.2967,4.59973,2470.18,2020-6-18T07:11:23Z
2020-06-18T05:13:41Z,42.805,6.029,13.2970,4.59973,2470.194,2020-6-18T07:14:26Z
2020-06-18T05:16:45Z,42.805,6.029,13.2968,4.59974,2470.203,2020-6-18T07:17:29Z
2020-06-18T05:19:48Z,42.805,6.029,13.2970,4.59973,2470.203,2020-6-18T07:20:32Z
2020-06-18T05:22:51Z,42.805,6.029,13.2972,4.59973,2470.203,2020-6-18T07:23:36Z
2020-06-18T05:25:54Z,42.805,6.029,13.2969,4.59973,2470.156,2020-6-18T07:26:39Z
2020-06-18T05:28:58Z,42.805,6.029,13.2967,4.59973,2470.24,2020-6-18T07:29:42Z
2020-06-18T05:32:01Z,42.805,6.029,13.2971,4.59975,2470.203,2020-6-18T07:32:45Z
2020-06-18T05:35:04Z,42.805,6.029,13.2969,4.59973,2470.194,2020-6-18T07:35:49Z
2020-06-18T05:38:07Z,42.805,6.029,13.2974,4.59976,2470.18,2020-6-18T07:38:52Z
2020-06-18T05:41:10Z,42.805,6.029,13.2969,4.59977,2470.18,2020-6-18T07:41:55Z
2020-06-18T05:44:14Z,42.805,6.029,13.2971,4.59975,2470.18,2020-6-18T07:44:58Z
2020-06-18T05:47:17Z,42.805,6.029,13.2967,4.59974,2470.217,2020-6-18T07:48:01Z
2020-06-18T05:50:20Z,42.805,6.029,13.2967,4.59973,2470.156,2020-6-18T07:51:05Z
2020-06-18T05:53:23Z,42.805,6.029,13.2967,4.59974,2470.203,2020-6-18T07:54:08Z
2020-06-18T05:56:27Z,42.805,6.029,13.2970,4.59974,2470.203,2020-6-18T07:57:11Z
2020-06-18T05:59:30Z,42.805,6.029,13.2971,4.59972,2470.217,2020-6-18T08:00:15Z
2020-06-18T06:02:33Z,42.805,6.029,13.2967,4.59976,2470.18,2020-6-18T08:03:18Z
2020-06-18T06:05:36Z,42.805,6.029,13.2968,4.59973,2470.227,2020-6-18T08:06:21Z
2020-06-18T06:08:40Z,42.805,6.029,13.2971,4.59973,2470.194,2020-6-18T08:09:24Z
2020-06-18T06:11:43Z,42.805,6.029,13.2970,4.59973,2470.18,2020-6-18T08:12:27Z
2020-06-18T06:14:46Z,42.805,6.029,13.2969,4.59978,2470.24,2020-6-18T08:15:31Z
2020-06-18T06:17:49Z,42.805,6.029,13.2969,4.59973,2470.194,2020-6-18T08:18:34Z
2020-06-18T06:20:52Z,42.805,6.029,13.2967,4.59971,2470.203,2020-6-18T08:21:37Z
2020-06-18T06:23:56Z,42.805,6.029,13.2966,4.59974,2470.194,2020-6-18T08:24:40Z
2020-06-18T06:26:59Z,42.805,6.029,13.2965,4.59973,2470.203,2020-6-18T08:27:44Z
2020-06-18T06:30:02Z,42.805,6.029,13.2967,4.59973,2470.18,2020-6-18T08:30:47Z
2020-06-18T06:33:05Z,42.805,6.029,13.2968,4.59971,2470.194,2020-6-18T08:33:50Z
2020-06-18T06:36:09Z,42.805,6.029,13.2968,4.59975,2470.18,2020-6-18T08:36:53Z
2020-06-18T06:39:12Z,42.805,6.029,13.2967,4.59976,2470.18,2020-6-18T08:39:56Z
2020-06-18T06:42:15Z,42.805,6.029,13.2968,4.59975,2470.203,2020-6-18T08:43:00Z
2020-06-18T06:45:18Z,42.805,6.029,13.2965,4.59975,2470.194,2020-6-18T08:46:03Z
2020-06-18T06:48:22Z,42.805,6.029,13.2968,4.59975,2470.194,2020-6-18T08:49:06Z
2020-06-18T06:51:25Z,42.805,6.029,13.2968,4.59975,2470.18,2020-6-18T08:52:09Z
2020-06-18T06:54:28Z,42.805,6.029,13.2965,4.59972,2470.147,2020-6-18T08:55:13Z
2020-06-18T06:57:31Z,42.805,6.029,13.2968,4.59972,2470.194,2020-6-18T08:58:16Z
2020-06-18T07:00:34Z,42.805,6.029,13.2964,4.59972,2470.203,2020-6-18T09:01:19Z
2020-06-18T07:03:38Z,42.805,6.029,13.2966,4.59973,2470.18,2020-6-18T09:04:22Z
2020-06-18T07:06:41Z,42.805,6.029,13.2968,4.59974,2470.194,2020-6-18T09:07:26Z
2020-06-18T07:09:44Z,42.805,6.029,13.2972,4.59975,2470.156,2020-6-18T09:10:29Z
2020-06-18T07:12:48Z,42.805,6.029,13.2965,4.59973,2470.194,2020-6-18T09:13:32Z
2020-06-18T07:15:51Z,42.805,6.029,13.2966,4.59973,2470.171,2020-6-18T09:16:36Z
2020-06-18T07:18:54Z,42.805,6.029,13.2967,4.59975,2470.171,2020-6-18T09:19:39Z
2020-06-18T07:21:57Z,42.805,6.029,13.2967,4.59976,2470.18,2020-6-18T09:22:42Z
2020-06-18T07:25:01Z,42.805,6.029,13.2971,4.59973,2470.171,2020-6-18T09:25:45Z
2020-06-18T07:28:04Z,42.805,6.029,13.2967,4.59973,2470.171,2020-6-18T09:28:49Z
2020-06-18T07:31:07Z,42.805,6.029,13.2968,4.59972,2470.171,2020-6-18T09:31:52Z
2020-06-18T07:34:10Z,42.805,6.029,13.2967,4.59972,2470.133,2020-6-18T09:34:55Z
2020-06-18T07:37:14Z,42.805,6.029,13.2970,4.59974,2470.133,2020-6-18T09:37:58Z
2020-06-18T07:40:17Z,42.805,6.029,13.2970,4.59972,2470.147,2020-6-18T09:41:01Z
2020-06-18T07:43:20Z,42.805,6.029,13.2971,4.59973,2470.147,2020-6-18T09:44:05Z
2020-06-18T07:46:23Z,42.805,6.029,13.2967,4.59973,2470.147,2020-6-18T09:47:08Z
2020-06-18T07:49:27Z,42.805,6.029,13.2970,4.59973,2470.156,2020-6-18T09:50:11Z
2020-06-18T07:52:30Z,42.805,6.029,13.2971,4.59976,2470.147,2020-6-18T09:53:14Z
2020-06-18T07:55:33Z,42.805,6.029,13.2969,4.59980,2470.156,2020-6-18T09:56:18Z
2020-06-18T07:58:37Z,42.805,6.029,13.2970,4.59973,2470.133,2020-6-18T09:59:21Z
2020-06-18T08:01:40Z,42.805,6.029,13.2968,4.59973,2470.124,2020-6-18T10:02:24Z
2020-06-18T08:04:43Z,42.805,6.029,13.2967,4.59972,2470.124,2020-6-18T10:05:28Z
2020-06-18T08:07:46Z,42.805,6.029,13.2967,4.59973,2470.171,2020-6-18T10:08:31Z
2020-06-18T08:10:49Z,42.805,6.029,13.2973,4.59973,2470.133,2020-6-18T10:11:34Z
2020-06-18T08:13:53Z,42.805,6.029,13.2968,4.59973,2470.11,2020-6-18T10:14:37Z
2020-06-18T08:16:56Z,42.805,6.029,13.2966,4.59973,2470.11,2020-6-18T10:17:41Z
2020-06-18T08:19:59Z,42.805,6.029,13.2970,4.59972,2470.133,2020-6-18T10:20:44Z
2020-06-18T08:23:03Z,42.805,6.029,13.2970,4.59973,2470.147,2020-6-18T10:23:47Z
2020-06-18T08:26:06Z,42.805,6.029,13.2967,4.59972,2470.124,2020-6-18T10:26:50Z
2020-06-18T08:29:09Z,42.805,6.029,13.2968,4.59971,2470.133,2020-6-18T10:29:54Z
2020-06-18T08:32:12Z,42.805,6.029,13.2967,4.59972,2470.133,2020-6-18T10:32:57Z
2020-06-18T08:35:16Z,42.805,6.029,13.2967,4.59973,2470.133,2020-6-18T10:36:00Z
2020-06-18T08:38:19Z,42.805,6.029,13.2968,4.59974,2470.11,2020-6-18T10:39:03Z
2020-06-18T08:41:22Z,42.805,6.029,13.2969,4.59972,2470.11,2020-6-18T10:42:07Z
2020-06-18T08:44:25Z,42.805,6.029,13.2968,4.59973,2470.087,2020-6-18T10:45:10Z
2020-06-18T08:47:29Z,42.805,6.029,13.2966,4.59971,2470.124,2020-6-18T10:48:13Z
2020-06-18T08:50:32Z,42.805,6.029,13.2968,4.59972,2470.063,2020-6-18T10:51:16Z
2020-06-18T08:53:35Z,42.805,6.029,13.2969,4.59972,2470.133,2020-6-18T10:54:20Z
2020-06-18T08:56:38Z,42.805,6.029,13.2968,4.59973,2470.1,2020-6-18T10:57:23Z
2020-06-18T08:59:41Z,42.805,6.029,13.2967,4.59973,2470.11,2020-6-18T11:00:26Z
2020-06-18T09:02:45Z,42.805,6.029,13.2968,4.59972,2470.11,2020-6-18T11:03:29Z
2020-06-18T09:05:48Z,42.805,6.029,13.2965,4.59972,2470.087,2020-6-18T11:06:33Z
2020-06-18T09:08:51Z,42.805,6.029,13.2968,4.59974,2470.124,2020-6-18T11:09:36Z
2020-06-18T09:11:55Z,42.805,6.029,13.2971,4.59972,2470.087,2020-6-18T11:12:39Z
2020-06-18T09:14:58Z,42.805,6.029,13.2965,4.59976,2470.087,2020-6-18T11:15:42Z
2020-06-18T09:18:01Z,42.805,6.029,13.2968,4.59976,2470.1,2020-6-18T11:18:46Z
2020-06-18T09:21:04Z,42.805,6.029,13.2969,4.59977,2470.1,2020-6-18T11:21:49Z
2020-06-18T09:24:08Z,42.805,6.029,13.2964,4.59973,2470.1,2020-6-18T11:24:52Z
2020-06-18T09:27:11Z,42.805,6.029,13.2967,4.59971,2470.077,2020-6-18T11:27:55Z
2020-06-18T09:30:14Z,42.805,6.029,13.2969,4.59975,2470.11,2020-6-18T11:30:59Z
2020-06-18T09:33:17Z,42.805,6.029,13.2967,4.59973,2470.1,2020-6-18T11:34:02Z
2020-06-18T09:36:21Z,42.805,6.029,13.2967,4.59971,2470.1,2020-6-18T11:37:05Z
2020-06-18T09:39:24Z,42.805,6.029,13.2964,4.59973,2470.11,2020-6-18T11:40:08Z
2020-06-18T09:42:27Z,42.805,6.029,13.2967,4.59973,2470.077,2020-6-18T11:43:12Z
2020-06-18T09:45:30Z,42.805,6.029,13.2967,4.59973,2470.063,2020-6-18T11:46:15Z
2020-06-18T09:48:34Z,42.805,6.029,13.2967,4.59974,2470.053,2020-6-18T11:49:18Z
2020-06-18T09:51:37Z,42.805,6.029,13.2968,4.59975,2470.087,2020-6-18T11:52:21Z
2020-06-18T09:54:40Z,42.805,6.029,13.2968,4.59973,2470.087,2020-6-18T11:55:25Z
2020-06-18T09:57:43Z,42.805,6.029,13.2967,4.59973,2470.063,2020-6-18T11:58:28Z
2020-06-18T10:00:46Z,42.805,6.029,13.2970,4.59974,2470.063,2020-6-18T12:01:31Z
2020-06-18T10:03:50Z,42.805,6.029,13.2967,4.59972,2470.03,2020-6-18T12:04:34Z
2020-06-18T10:06:53Z,42.805,6.029,13.2966,4.59973,2470.077,2020-6-18T12:07:38Z
2020-06-18T10:09:56Z,42.805,6.029,13.2965,4.59971,2470.063,2020-6-18T12:10:41Z
2020-06-18T10:12:59Z,42.805,6.029,13.2970,4.59973,2470.077,2020-6-18T12:13:44Z
2020-06-18T10:16:03Z,42.805,6.029,13.2967,4.59973,2470.03,2020-6-18T12:16:47Z
2020-06-18T10:19:06Z,42.805,6.029,13.2967,4.59973,2470.04,2020-6-18T12:19:50Z
2020-06-18T10:22:09Z,42.805,6.029,13.2971,4.59971,2470.04,2020-6-18T12:22:54Z
2020-06-18T10:25:13Z,42.805,6.029,13.2966,4.59973,2470.053,2020-6-18T12:25:57Z
2020-06-18T10:28:16Z,42.805,6.029,13.2968,4.59971,2470.04,2020-6-18T12:29:01Z
2020-06-18T10:31:19Z,42.805,6.029,13.2968,4.59971,2470.1,2020-6-18T12:32:04Z
2020-06-18T10:34:22Z,42.805,6.029,13.2969,4.59971,2470.049,2020-6-18T12:35:07Z
2020-06-18T10:37:26Z,42.805,6.029,13.2966,4.59976,2470.063,2020-6-18T12:38:10Z
2020-06-18T10:40:29Z,42.805,6.029,13.2968,4.59975,2470.063,2020-6-18T12:41:14Z
2020-06-18T10:43:32Z,42.805,6.029,13.2970,4.59976,2470.087,2020-6-18T12:44:17Z
2020-06-18T10:46:35Z,42.805,6.029,13.2971,4.59972,2470.063,2020-6-18T12:47:20Z
2020-06-18T10:49:39Z,42.805,6.029,13.2965,4.59973,2470.077,2020-6-18T12:50:23Z
2020-06-18T10:52:42Z,42.805,6.029,13.2968,4.59973,2470.04,2020-6-18T12:53:26Z
2020-06-18T10:55:45Z,42.805,6.029,13.2971,4.59971,2470.04,2020-6-18T12:56:30Z
2020-06-18T10:58:48Z,42.805,6.029,13.2971,4.59971,2470.087,2020-6-18T12:59:33Z
2020-06-18T11:01:52Z,42.805,6.029,13.2970,4.59971,2470.04,2020-6-18T13:02:36Z
2020-06-18T11:04:55Z,42.805,6.029,13.2966,4.59973,2470.063,2020-6-18T13:05:40Z
2020-06-18T11:07:58Z,42.805,6.029,13.2969,4.59972,2470.053,2020-6-18T13:08:43Z
2020-06-18T11:11:01Z,42.805,6.029,13.2971,4.59973,2470.04,2020-6-18T13:11:46Z
2020-06-18T11:14:05Z,42.805,6.029,13.2969,4.59976,2470.077,2020-6-18T13:14:49Z
2020-06-18T11:17:08Z,42.805,6.029,13.2969,4.59973,2470.04,2020-6-18T13:17:53Z
2020-06-18T11:20:11Z,42.805,6.029,13.2966,4.59973,2470.04,2020-6-18T13:20:56Z
2020-06-18T11:23:14Z,42.805,6.029,13.2965,4.59972,2470.04,2020-6-18T13:23:59Z
2020-06-18T11:26:18Z,42.805,6.029,13.2967,4.59972,2470.03,2020-6-18T13:27:02Z
2020-06-18T11:29:21Z,42.805,6.029,13.2967,4.59973,2470.017,2020-6-18T13:30:05Z
2020-06-18T11:32:24Z,42.805,6.029,13.2967,4.59970,2470.04,2020-6-18T13:33:09Z
2020-06-18T11:35:27Z,42.805,6.029,13.2968,4.59972,2469.993,2020-6-18T13:36:12Z
2020-06-18T11:38:30Z,42.805,6.029,13.2967,4.59973,2470.04,2020-6-18T13:39:15Z
2020-06-18T11:41:34Z,42.805,6.029,13.2968,4.59973,2470.053,2020-6-18T13:42:18Z
2020-06-18T11:44:37Z,42.805,6.029,13.2969,4.59973,2470.04,2020-6-18T13:45:22Z
2020-06-18T11:47:40Z,42.805,6.029,13.2970,4.59973,2470.04,2020-6-18T13:48:25Z
2020-06-18T11:50:43Z,42.805,6.029,13.2967,4.59973,2470.04,2020-6-18T13:51:28Z
2020-06-18T11:53:47Z,42.805,6.029,13.2970,4.59976,2470.017,2020-6-18T13:54:31Z
2020-06-18T11:56:50Z,42.805,6.029,13.2966,4.59973,2470.063,2020-6-18T13:57:34Z
2020-06-18T11:59:53Z,42.805,6.029,13.2969,4.59973,2470.026,2020-6-18T14:00:38Z
2020-06-18T12:02:57Z,42.805,6.029,13.2968,4.59972,2470.017,2020-6-18T14:03:41Z
2020-06-18T12:06:00Z,42.805,6.029,13.2966,4.59972,2470.04,2020-6-18T14:06:44Z
2020-06-18T12:09:03Z,42.805,6.029,13.2971,4.59971,2470.053,2020-6-18T14:09:48Z
2020-06-18T12:12:06Z,42.805,6.029,13.2967,4.59971,2470.063,2020-6-18T14:12:51Z
2020-06-18T12:15:09Z,42.805,6.029,13.2968,4.59972,2470.053,2020-6-18T14:15:54Z
2020-06-18T12:18:13Z,42.805,6.029,13.2968,4.59972,2470.053,2020-6-18T14:18:57Z
2020-06-18T12:21:16Z,42.805,6.029,13.2968,4.59972,2470.063,2020-6-18T14:22:01Z
2020-06-18T12:24:19Z,42.805,6.029,13.2967,4.59970,2470.053,2020-6-18T14:25:04Z
2020-06-18T12:27:22Z,42.805,6.029,13.2965,4.59973,2470.053,2020-6-18T14:28:07Z
2020-06-18T12:30:26Z,42.805,6.029,13.2971,4.59974,2470.017,2020-6-18T14:31:10Z
2020-06-18T12:33:29Z,42.805,6.029,13.2971,4.59972,2470.04,2020-6-18T14:34:13Z
2020-06-18T12:36:32Z,42.805,6.029,13.2968,4.59972,2470.077,2020-6-18T14:37:17Z
2020-06-18T12:39:35Z,42.805,6.029,13.2968,4.59975,2470.063,2020-6-18T14:40:20Z
2020-06-18T12:42:39Z,42.805,6.029,13.2970,4.59973,2470.063,2020-6-18T14:43:23Z
2020-06-18T12:45:42Z,42.805,6.029,13.2968,4.59976,2470.04,2020-6-18T14:46:26Z
2020-06-18T12:48:45Z,42.805,6.029,13.2969,4.59974,2470.063,2020-6-18T14:49:30Z
2020-06-18T12:51:48Z,42.805,6.029,13.2968,4.59972,2470.053,2020-6-18T14:52:33Z
2020-06-18T12:54:51Z,42.805,6.029,13.2968,4.59971,2470.026,2020-6-18T14:55:36Z
2020-06-18T12:57:55Z,42.805,6.029,13.2969,4.59972,2470.077,2020-6-18T14:58:39Z
2020-06-18T13:00:58Z,42.805,6.029,13.2968,4.59973,2470.077,2020-6-18T15:01:43Z
2020-06-18T13:04:01Z,42.805,6.029,13.2967,4.59971,2470.077,2020-6-18T15:04:46Z
2020-06-18T13:07:05Z,42.805,6.029,13.2968,4.59971,2470.063,2020-6-18T15:07:49Z
2020-06-18T13:10:08Z,42.805,6.029,13.2970,4.59971,2470.04,2020-6-18T15:10:52Z
2020-06-18T13:13:11Z,42.805,6.029,13.2968,4.59972,2470.063,2020-6-18T15:13:56Z
2020-06-18T13:16:14Z,42.805,6.029,13.2970,4.59972,2470.077,2020-6-18T15:16:59Z
2020-06-18T13:19:18Z,42.805,6.029,13.2968,4.59973,2470.04,2020-6-18T15:20:02Z
2020-06-18T13:22:21Z,42.805,6.029,13.2968,4.59971,2470.049,2020-6-18T15:23:05Z
2020-06-18T13:25:24Z,42.805,6.029,13.2964,4.59971,2470.124,2020-6-18T15:26:09Z
2020-06-18T13:28:27Z,42.805,6.029,13.2966,4.59971,2470.077,2020-6-18T15:29:12Z
2020-06-18T13:31:30Z,42.805,6.029,13.2970,4.59971,2470.1,2020-6-18T15:32:15Z
2020-06-18T13:34:34Z,42.805,6.029,13.2969,4.59973,2470.1,2020-6-18T15:35:18Z
2020-06-18T13:37:37Z,42.805,6.029,13.2968,4.59972,2470.063,2020-6-18T15:38:22Z
2020-06-18T13:40:40Z,42.805,6.029,13.2965,4.59972,2470.049,2020-6-18T15:41:25Z
2020-06-18T13:43:43Z,42.805,6.029,13.2966,4.59973,2470.077,2020-6-18T15:44:28Z
2020-06-18T13:46:47Z,42.805,6.029,13.2971,4.59971,2470.087,2020-6-18T15:47:31Z
2020-06-18T13:49:50Z,42.805,6.029,13.2968,4.59972,2470.063,2020-6-18T15:50:35Z
2020-06-18T13:52:53Z,42.805,6.029,13.2969,4.59972,2470.087,2020-6-18T15:53:38Z
2020-06-18T13:55:56Z,42.805,6.029,13.2969,4.59973,2470.063,2020-6-18T15:56:41Z
2020-06-18T13:59:00Z,42.805,6.029,13.2968,4.59972,2470.1,2020-6-18T15:59:44Z
2020-06-18T14:02:03Z,42.805,6.029,13.2970,4.59973,2470.04,2020-6-18T16:02:48Z
2020-06-18T14:05:06Z,42.805,6.029,13.2965,4.59971,2470.087,2020-6-18T16:05:51Z
2020-06-18T14:08:09Z,42.805,6.029,13.2966,4.59973,2470.1,2020-6-18T16:08:54Z
2020-06-18T14:11:13Z,42.805,6.029,13.2968,4.59973,2470.1,2020-6-18T16:11:57Z
2020-06-18T14:14:16Z,42.805,6.029,13.2968,4.59973,2470.087,2020-6-18T16:15:00Z
2020-06-18T14:17:19Z,42.805,6.029,13.2968,4.59972,2470.087,2020-6-18T16:18:04Z
2020-06-18T14:20:22Z,42.805,6.029,13.2969,4.59972,2470.087,2020-6-18T16:21:07Z
2020-06-18T14:23:26Z,42.805,6.029,13.2969,4.59971,2470.124,2020-6-18T16:24:10Z
2020-06-18T14:26:29Z,42.805,6.029,13.2967,4.59971,2470.11,2020-6-18T16:27:13Z
2020-06-18T14:29:32Z,42.805,6.029,13.2965,4.59971,2470.147,2020-6-18T16:30:17Z
2020-06-18T14:32:35Z,42.805,6.029,13.2967,4.59973,2470.087,2020-6-18T16:33:20Z
2020-06-18T14:35:39Z,42.805,6.029,13.2968,4.59972,2470.063,2020-6-18T16:36:23Z
2020-06-18T14:38:42Z,42.805,6.029,13.2966,4.59973,2470.147,2020-6-18T16:39:26Z
2020-06-18T14:41:45Z,42.805,6.029,13.2970,4.59971,2470.11,2020-6-18T16:42:30Z
2020-06-18T14:44:48Z,42.805,6.029,13.2969,4.59973,2470.124,2020-6-18T16:45:33Z
2020-06-18T14:47:51Z,42.805,6.029,13.2968,4.59973,2470.124,2020-6-18T16:48:36Z
2020-06-18T14:50:55Z,42.805,6.029,13.2966,4.59971,2470.087,2020-6-18T16:51:39Z
2020-06-18T14:53:58Z,42.805,6.029,13.2968,4.59973,2470.087,2020-6-18T16:54:43Z
2020-06-18T14:57:01Z,42.805,6.029,13.2968,4.59972,2470.133,2020-6-18T16:57:46Z
2020-06-18T15:00:04Z,42.805,6.029,13.2967,4.59972,2470.124,2020-6-18T17:00:49Z
2020-06-18T15:03:08Z,42.805,6.029,13.2968,4.59973,2470.147,2020-6-18T17:03:52Z
2020-06-18T15:06:11Z,42.805,6.029,13.2968,4.59972,2470.087,2020-6-18T17:06:55Z
2020-06-18T15:09:14Z,42.805,6.029,13.2970,4.59972,2470.156,2020-6-18T17:09:59Z
2020-06-18T15:12:17Z,42.805,6.029,13.2972,4.59971,2470.133,2020-6-18T17:13:02Z
2020-06-18T15:15:21Z,42.805,6.029,13.2971,4.59972,2470.171,2020-6-18T17:16:05Z
2020-06-18T15:18:24Z,42.805,6.029,13.2970,4.59973,2470.133,2020-6-18T17:19:08Z
2020-06-18T15:21:27Z,42.805,6.029,13.2965,4.59972,2470.156,2020-6-18T17:22:12Z
2020-06-18T15:24:30Z,42.805,6.029,13.2969,4.59973,2470.133,2020-6-18T17:25:15Z
2020-06-18T15:27:33Z,42.805,6.029,13.2972,4.59973,2470.171,2020-6-18T17:28:18Z
2020-06-18T15:30:37Z,42.805,6.029,13.2963,4.59972,2470.171,2020-6-18T17:31:21Z
2020-06-18T15:33:40Z,42.805,6.029,13.2972,4.59974,2470.171,2020-6-18T17:34:24Z
2020-06-18T15:36:43Z,42.805,6.029,13.2967,4.59973,2470.18,2020-6-18T17:37:28Z
2020-06-18T15:39:46Z,42.805,6.029,13.2967,4.59973,2470.171,2020-6-18T17:40:31Z
2020-06-18T15:42:49Z,42.805,6.029,13.2969,4.59973,2470.156,2020-6-18T17:43:34Z
2020-06-18T15:45:53Z,42.805,6.029,13.2969,4.59973,2470.156,2020-6-18T17:46:37Z
2020-06-18T15:48:56Z,42.805,6.029,13.2970,4.59973,2470.11,2020-6-18T17:49:40Z
2020-06-18T15:51:59Z,42.805,6.029,13.2966,4.59973,2470.194,2020-6-18T17:52:44Z
2020-06-18T15:55:02Z,42.805,6.029,13.2968,4.59973,2470.18,2020-6-18T17:55:47Z
2020-06-18T15:58:06Z,42.805,6.029,13.2969,4.59972,2470.18,2020-6-18T17:58:50Z
2020-06-18T16:01:09Z,42.805,6.029,13.2964,4.59973,2470.194,2020-6-18T18:01:53Z
2020-06-18T16:04:12Z,42.805,6.029,13.2964,4.59972,2470.18,2020-6-18T18:04:57Z
2020-06-18T16:07:15Z,42.805,6.029,13.2968,4.59972,2470.156,2020-6-18T18:08:00Z
2020-06-18T16:10:18Z,42.805,6.029,13.2970,4.59971,2470.18,2020-6-18T18:11:03Z
2020-06-18T16:13:22Z,42.805,6.029,13.2968,4.59972,2470.18,2020-6-18T18:14:06Z
2020-06-18T16:16:25Z,42.805,6.029,13.2967,4.59973,2470.18,2020-6-18T18:17:09Z
2020-06-18T16:19:28Z,42.805,6.029,13.2969,4.59974,2470.156,2020-6-18T18:20:13Z
2020-06-18T16:22:31Z,42.805,6.029,13.2966,4.59972,2470.203,2020-6-18T18:23:16Z
2020-06-18T16:28:37Z,42.805,6.029,13.2968,4.59971,2470.203,2020-6-18T18:29:22Z
2020-06-18T16:31:41Z,42.805,6.029,13.2968,4.59973,2470.18,2020-6-18T18:32:25Z
2020-06-18T16:34:44Z,42.805,6.029,13.2971,4.59974,2470.18,2020-6-18T18:35:29Z
2020-06-18T16:37:47Z,42.805,6.029,13.2968,4.59973,2470.203,2020-6-18T18:38:32Z
2020-06-18T16:40:50Z,42.805,6.029,13.2967,4.59973,2470.156,2020-6-18T18:41:35Z
2020-06-18T16:43:53Z,42.805,6.029,13.2969,4.59973,2470.203,2020-6-18T18:44:38Z
2020-06-18T16:46:57Z,42.805,6.029,13.2970,4.59972,2470.194,2020-6-18T18:47:41Z
2020-06-18T16:50:00Z,42.805,6.029,13.2964,4.59973,2470.18,2020-6-18T18:50:45Z
2020-06-18T16:53:03Z,42.805,6.029,13.2969,4.59972,2470.156,2020-6-18T18:53:48Z